THOR ABLESTAR DEB, 48811

Orbit data source: Space-Track

THOR ABLESTAR DEB, 48811 is space debris in LEO originally from a launch on Thu, 29 Jun 1961 UTC launched from the Air Force Eastern Test Range (AFETR). Debris objects in space refer to the collection of defunct objects orbiting the Earth. Examples of debris include non-operational satellites, rocket bodies, and fragments generated from explosions, collisions, or faulty payload assembly.

Loading next visibility...
Identifier
48811, 1961-015MP
Orbit
LEO
Country
Flag of USUS
Related business
Manufacturer
Unknown
Mission
Spacecraft
Bus & Motor
Unknown
Mass
Unknown
Launch date (UTC)
1961-06-29 (64 years ago)
Launch vehicle
Unknown
Launch site
Air Force Eastern Test Range (AFETR)
Object type
Payload
Rocket body
Debris
Shape & HBR
Unknown shape, 0.1 m
Radar Cross Section
Small (<0.1 m²)

Expand to show TLE details & history
Last TLE update: 7 hours ago

TLE from 7 hours ago
0 THOR ABLESTAR DEB
1 48811U 61015MP  25347.00031064  .00000472  00000-0  50393-3 0  9996
2 48811  67.0606  75.5365 0108190 281.6011  77.2936 13.79744216606941
Epoch: 2025-12-13T00:00Z
TLE epoch observation values (Epoch: 2025-12-13T00:00:26.839Z)
Latitude
-0°
Longitude
-6.5092°
Altitude
950.224 km
Speed
7.385 km/s
True Right ascension
05h 02m 08s
True Declination
0° 00' 00"
Sunlit
Object was in full shadow at epoch
Visualization orbit readout
Latitude
Unknown
Longitude
Unknown
Altitude
Unknown
Speed
Unknown
Apparent Right ascension
Unknown
Apparent Declination
Unknown
Sunlit
N/A
Visualization observer readout
Local Sidereal Time
05:06:15
Azimuth
Unknown
Elevation
Unknown
Doppler factor
Unknown
Orbital elements
Apogee altitude
1,042.592 km
Perigee altitude
883.741 km
Semi-major axis
7,341.303 km
Eccentricity
0.01082
Inclination
67.0606°
RAAN
75.5365°
Arg. of periapsis
281.6011°
True anomaly
78.50652°
Mean anomaly
77.2936°
Eccentric anomaly
77.89971°
Mean motion
3.45051 °/min
Orbital period
104.33 mins
BSTAR
0.00050393
Loading maneuver chart data...
Computing Atmospheric mass density...
Loading historical data...
Loading historical data...
Loading historical data...
Loading historical data...
Loading historical data...
Loading historical data...
Loading historical data...

Documentation

Showing up to 5 results
|